Hauptseite
METAR-TAF:

METAR-TAF

Flughäfen :

Luxeuil-les-Bains, Frankreich

Militärflugplatz Luxeuil-Saint Sauveur

Breite: 47-47N, Länge: 006-21E, Höhe: 278 m

Beobachtung

Neuester Wetterbericht von vor 15 Minuten, um 23:00 UTC
Windstille
Temperatur 12°C
Luftfeuchtigkeit 94%
Luftdruck 1017 hPa
Sichtweite 10 km oder mehr

METAR: LFSX 212300Z AUTO 00000KT 9999 NCD 12/11 Q1017

Zeit: 01:15 (23:15 UTC)

Prognose

Neuester Wetterbericht von vor 39 Stunden und 15 Minuten, um 08:00 UTC
Gültige Prognose vom 20 um 09 UTC bis 21 um 09 UTC
Wind 5 kt aus West
Sichtweite 10 km oder mehr
keine Wolken unter 1500 m und keine Kumulonimbus oder Gewitterwolken

TAF: LFSX 200800Z 2009/2109 26005KT CAVOK

Wetterbeobachtungen und Prognosen von mehr als 4000 Flughäfen (METAR und TAF Bericht).

Die verfügbaren Stationen werden durch gelbe und rote Markierungen auf der Karte dargestellt.

Führen Sie die Maus auf sie, um den Namen der Station zu sehen.

Darauf klicken, um die Beobachtung von Wetterbeobachtungen und Prognosen zu sehen.

Um die Karte zu ändern : klicken Sie auf den grünen Tasten mit einem schwarzen Kreuz Zum Vergrößern, auf den grünen Button mit einem Gedankenstrich zu verkleinern, oder auf die grünen Pfeile für benachbarte Karten.


METAR-TAF: